Location: Namasale
(1.5000°N, 32.6167°E)
Time: 01:37:49
(UTC+00:00)

Vanguard 2 - All Passes

Search period start: 21 April 2021 00:00
Search period end: 01 May 2021 00:00
Orbit: 552 x 2938 km, 32.9° (Epoch: 20 April)

Date Brightness Start Highest point End Pass type
(mag) Time Alt. Az. Time Alt. Az. Time Alt. Az.
21 Apr - 03:51:03 10° SSW 04:02:40 33° SE 04:17:22 10° E daylight
21 Apr - 05:59:29 10° SW 06:15:33 80° SE 06:33:17 10° ENE daylight
21 Apr - 08:12:20 10° WSW 08:29:03 48° NW 08:43:53 10° NE daylight
21 Apr - 10:32:55 10° WNW 10:43:12 19° NNW 10:51:40 10° NNE daylight
21 Apr - 17:17:19 10° NW 17:22:07 36° NNE 17:25:52 10° E visible
21 Apr - 19:27:25 10° W 19:30:17 18° SSW 19:33:10 10° SSE night (unlit)
22 Apr - 02:03:52 10° S 02:08:05 12° SSE 02:12:53 10° SE visible
22 Apr - 04:08:12 10° SSW 04:20:45 42° SE 04:36:56 10° ENE daylight
22 Apr - 06:17:21 10° WSW 06:33:36 84° NW 06:51:18 10° NE daylight
22 Apr - 08:31:35 10° W 08:47:22 38° NNW 09:01:18 10° NNE daylight
22 Apr - 10:54:18 10° NW 11:02:11 15° NNW 11:08:52 10° N daylight
22 Apr - 15:27:00 10° N 15:30:16 13° NNE 15:33:00 10° NE daylight
22 Apr - 17:34:50 10° NW 17:39:58 71° NNE 17:43:57 10° ESE visible
23 Apr - 02:19:34 10° S 02:26:34 17° SE 02:35:19 10° ESE visible
23 Apr - 04:25:29 10° SW 04:38:43 55° SE 04:55:57 10° ENE daylight
23 Apr - 06:35:29 10° WSW 06:51:42 69° NW 07:09:06 10° NE daylight
23 Apr - 08:51:20 10° W 09:05:54 30° NNW 09:18:41 10° NNE daylight
23 Apr - 11:15:51 10° NW 11:21:24 13° NNW 11:26:16 10° N daylight
23 Apr - 15:43:33 10° NNW 15:48:40 21° NNE 15:52:29 10° ENE daylight
23 Apr - 17:52:45 10° WNW 17:57:41 56° SW 18:01:35 10° SE visible
24 Apr - 02:36:06 10° SSW 02:44:48 24° SE 02:56:20 10° E visible
24 Apr - 04:42:56 10° SW 04:56:38 69° SE 05:14:33 10° ENE daylight
24 Apr - 06:53:55 10° WSW 07:09:54 55° NNW 07:26:44 10° NE daylight
24 Apr - 09:11:37 10° WNW 09:24:41 24° NNW 09:36:07 10° NNE daylight
24 Apr - 11:36:55 10° NNW 11:40:45 11° N 11:44:13 10° N daylight
24 Apr - 13:52:13 10° N 13:55:27 12° N 13:58:14 10° NNE daylight
24 Apr - 16:00:39 10° NW 16:06:53 33° NNE 16:11:11 10° E daylight
24 Apr - 18:11:10 10° W 18:15:18 28° SW 18:18:47 10° SSE visible
25 Apr - 02:52:56 10° SSW 03:02:48 33° SE 03:16:29 10° E visible
25 Apr - 05:00:36 10° SW 05:14:35 86° SE 05:32:49 10° NE daylight
25 Apr - 07:12:45 10° W 07:28:16 44° NNW 07:44:17 10° NE daylight
25 Apr - 09:32:22 10° WNW 09:43:43 20° NNW 09:53:39 10° NNE daylight
25 Apr - 11:56:30 10° NNW 12:00:08 11° N 12:03:24 10° NNE daylight
25 Apr - 14:08:41 10° NNW 14:14:12 16° NNE 14:18:28 10° NE daylight
25 Apr - 16:18:07 10° NW 16:24:54 55° NNE 16:29:24 10° ESE visible
25 Apr - 18:30:24 10° WSW 18:32:57 15° SW 18:35:17 10° S visible
26 Apr - 03:10:01 10° SSW 03:20:38 44° SE 03:35:58 10° ENE visible
26 Apr - 05:18:29 10° WSW 05:32:37 78° NW 05:50:48 10° NE daylight
26 Apr - 07:32:00 10° W 07:46:50 36° NNW 08:01:49 10° NNE daylight
26 Apr - 09:53:21 10° NW 10:03:01 17° NNW 10:11:28 10° NNE daylight
26 Apr - 12:14:36 10° NNW 12:19:25 13° N 12:23:34 10° NNE daylight
26 Apr - 14:25:40 10° NNW 14:32:47 23° NNE 14:37:47 10° ENE daylight
26 Apr - 16:35:56 10° WNW 16:42:43 84° SW 16:47:12 10° SE visible
27 Apr - 01:22:24 10° S 01:27:43 16° SE 01:34:21 10° ESE visible
27 Apr - 03:27:17 10° SW 03:38:25 57° SE 03:54:55 10° ENE daylight
27 Apr - 05:36:39 10° WSW 05:50:48 63° NNW 06:08:37 10° NE daylight
27 Apr - 07:51:45 10° WNW 08:05:39 29° NNW 08:19:22 10° NNE daylight
27 Apr - 10:14:10 10° NW 10:22:30 15° N 10:29:46 10° NNE daylight
27 Apr - 12:32:06 10° NNW 12:38:34 15° N 12:43:46 10° NE daylight
27 Apr - 14:42:55 10° NW 14:51:11 33° NNE 14:56:34 10° E daylight
27 Apr - 16:54:07 10° WNW 17:00:21 46° SW 17:04:39 10° SE visible
28 Apr - 01:38:36 10° S 01:45:40 23° SE 01:55:22 10° E visible
28 Apr - 03:44:45 10° SW 03:56:13 74° SE 04:13:27 10° ENE daylight
28 Apr - 05:55:08 10° WSW 06:09:09 50° NNW 06:26:16 10° NE daylight
28 Apr - 08:11:55 10° WNW 08:24:43 24° NNW 08:37:02 10° NNE daylight
28 Apr - 10:34:16 10° NNW 10:42:03 15° N 10:48:45 10° NNE daylight
28 Apr - 12:49:27 10° NNW 12:57:32 19° NNE 13:03:34 10° ENE daylight
28 Apr - 15:00:24 10° NW 15:09:22 49° NNE 15:14:53 10° ESE daylight
28 Apr - 17:12:49 10° W 17:17:53 26° SW 17:21:41 10° SSE visible
29 Apr - 01:55:20 10° SSW 02:03:25 32° SE 02:15:24 10° E visible
29 Apr - 04:02:26 10° SW 04:14:08 87° NW 04:31:40 10° NE daylight
29 Apr - 06:14:00 10° W 06:27:42 40° NNW 06:43:53 10° NE daylight
29 Apr - 08:32:27 10° WNW 08:44:02 20° NNW 08:54:59 10° NNE daylight
29 Apr - 10:53:25 10° NNW 11:01:33 15° N 11:08:23 10° NE daylight
29 Apr - 13:06:47 10° NNW 13:16:18 25° NNE 13:22:53 10° ENE daylight
29 Apr - 15:18:09 10° NW 15:27:21 76° NNE 15:32:51 10° ESE daylight
29 Apr - 17:32:26 10° WSW 17:35:26 14° SW 17:37:59 10° S visible
30 Apr - 02:12:22 10° SSW 02:21:05 44° SE 02:34:44 10° ENE visible
30 Apr - 04:20:21 10° WSW 04:32:12 70° NNW 04:49:36 10° NE daylight
30 Apr - 06:33:17 10° W 06:46:28 32° NNW 07:01:31 10° NNE daylight
30 Apr - 08:53:02 10° NW 09:03:35 18° N 09:13:20 10° NNE daylight
30 Apr - 11:11:45 10° NNW 11:20:55 18° N 11:28:17 10° NE daylight
30 Apr - 13:24:12 10° NW 13:34:52 34° NNE 13:41:45 10° E daylight
30 Apr - 15:36:12 10° WNW 15:45:06 69° SW 15:50:28 10° SE daylight
